Date String (YYYY-MM-DD hh:mm:ss) UTC,Instrument flags,absolute air pressure of the measurement (hPa),sample flow rate (lpm),inlet stack bypass flow (lpm),air temperature of the measurement (°C),ambient temperature measured by the external sensor (°C),aerosol sample conditioner tube jacket temperature (°C),OPC LED temperature (°C),internal box temperature (°C),relative humidity of the measurement (%),span deviation,mass concentration of particles derived from Lorenz-Mie calculation of OPC scattering (μg/m³),mass concentration of particles derived from Lorenz-Mie calculation of OPC scattering (μg/m³),mass concentration of particles derived from Lorenz-Mie calculation of OPC scattering (μg/m³)
DateTimeUTC,F1_M11,P_M11,Q1_M11,Q2_M11,T1_M11,T2_M11,T3_M11,T4_M11,T5_M11,U1_M11,ZSPAN_M11,X2_M11,X0_M11,X1_M11
2023-07-15 08:00:00,SystemResetWarning,0835.5,5.00,000.00,029.5,028.3,000.0,038.0,031.2,32.5,-002.3,0005.90,0011.33,0005.14
2023-07-15 08:01:00,SystemResetWarning,0835.5,5.01,000.00,029.6,028.4,000.0,038.0,031.2,32.4,-000.7,0005.87,0012.07,0005.13
2023-07-15 08:02:00,SystemResetWarning,0835.5,5.01,000.00,029.6,028.4,000.0,038.0,031.2,32.3,0000.0,0005.88,0012.12,0005.13
2023-07-15 08:03:00,SystemResetWarning,0835.5,4.99,000.00,029.6,028.5,000.0,038.0,031.3,32.1,-000.6,0005.88,0011.66,0005.11
2023-07-15 08:04:00,SystemResetWarning,0835.5,4.99,000.00,029.7,028.5,000.0,038.1,031.3,32.0,-000.6,0005.87,0011.61,0005.10
2023-07-15 08:05:00,SystemResetWarning,0835.5,5.00,000.00,029.7,028.6,000.0,038.1,031.3,31.9,-000.9,0005.90,0011.89,0005.09
2023-07-15 08:06:00,SystemResetWarning,0835.5,5.00,000.00,029.7,028.6,000.0,038.1,031.3,31.9,-000.8,0005.94,0012.62,0005.10
2023-07-15 08:07:00,SystemResetWarning,0835.5,5.01,000.00,029.7,028.6,000.0,038.1,031.4,31.9,-000.6,0006.01,0012.79,0005.09
2023-07-15 08:08:00,SystemResetWarning,0835.5,5.01,000.00,029.8,028.6,000.0,038.1,031.4,31.9,-000.5,0006.10,0013.16,0005.11
2023-07-15 08:09:00,SystemResetWarning,0835.5,4.98,000.00,029.8,027.2,000.0,038.1,031.2,31.8,-000.6,0006.16,0013.37,0005.11
2023-07-15 08:10:00,SystemResetWarning,0835.5,5.00,000.00,029.7,025.7,000.0,038.0,031.0,32.0,-000.0,0006.26,0014.13,0005.12
2023-07-15 08:11:00,SystemResetWarning,0835.4,5.01,000.00,029.6,025.2,000.0,037.9,030.7,32.2,0000.8,0006.32,0014.40,0005.13
2023-07-15 08:12:00,SystemResetWarning,0835.4,5.00,000.00,029.4,025.5,000.0,037.9,030.6,32.3,0000.1,0006.46,0014.25,0005.14
2023-07-15 08:13:00,SystemResetWarning,0835.4,4.99,000.00,029.4,025.9,000.0,037.9,030.6,32.4,-000.2,0006.48,0014.39,0005.15
2023-07-15 08:14:00,SystemResetWarning,0835.5,5.00,000.00,029.3,026.3,000.0,037.9,030.7,32.4,-000.4,0006.46,0014.61,0005.14
2023-07-15 08:15:00,SystemResetWarning,0835.5,5.01,000.00,029.3,026.7,000.0,037.9,030.8,32.4,-000.4,0006.48,0014.83,0005.13
2023-07-15 08:16:00,SystemResetWarning,0835.5,4.99,000.00,029.4,027.0,000.0,038.0,030.8,32.3,-000.1,0006.51,0014.81,0005.12
2023-07-15 08:17:00,SystemResetWarning,0835.5,4.99,000.00,029.4,027.3,000.0,037.9,030.9,32.3,-000.8,0006.59,0014.85,0005.12
2023-07-15 08:18:00,SystemResetWarning,0835.5,5.00,000.00,029.4,027.5,000.0,037.9,030.9,32.3,-000.5,0006.62,0015.35,0005.10
2023-07-15 08:19:00,SystemResetWarning,0835.5,5.00,000.00,029.4,027.7,000.0,038.0,030.9,32.1,-000.8,0006.60,0015.86,0005.08
2023-07-15 08:20:00,SystemResetWarning,0835.5,5.00,000.00,029.4,027.8,000.0,037.9,031.0,32.0,-000.6,0006.58,0015.85,0005.08
2023-07-15 08:21:00,SystemResetWarning,0835.4,5.01,000.00,029.4,027.9,000.0,038.0,031.0,32.0,-000.1,0006.53,0015.30,0005.09
2023-07-15 08:22:00,SystemResetWarning,0835.3,5.00,000.00,029.5,028.0,000.0,038.0,031.0,31.9,-001.1,0006.45,0015.52,0005.08
2023-07-15 08:23:00,SystemResetWarning,0835.3,4.99,000.00,029.5,028.1,000.0,038.0,031.1,31.9,-001.2,0006.37,0016.47,0005.09
2023-07-15 08:24:00,SystemResetWarning,0835.3,4.99,000.00,029.5,028.2,000.0,038.0,031.1,31.9,-000.9,0006.31,0016.24,0005.10
2023-07-15 08:25:00,SystemResetWarning,0835.4,5.00,000.00,029.5,028.3,000.0,038.0,031.2,31.9,-000.9,0006.30,0015.84,0005.12
2023-07-15 08:26:00,SystemResetWarning,0835.4,5.01,000.00,029.6,028.3,000.0,038.0,031.2,31.8,-001.0,0006.31,0016.00,0005.15
2023-07-15 08:27:00,SystemResetWarning,0835.4,5.01,000.00,029.6,028.4,000.0,038.0,031.2,31.8,-000.2,0006.37,0016.11,0005.17
2023-07-15 08:28:00,SystemResetWarning,0835.4,4.98,000.00,029.6,028.4,000.0,038.1,031.3,31.8,-000.1,0006.33,0015.92,0005.19
2023-07-15 08:29:00,SystemResetWarning,0835.4,5.00,000.00,029.7,028.5,000.0,038.1,031.3,31.8,-000.2,0006.27,0014.91,0005.19
2023-07-15 08:30:00,SystemResetWarning,0835.3,5.01,000.00,029.7,028.5,000.0,038.1,031.3,31.8,-000.4,0006.23,0014.44,0005.19
2023-07-15 08:31:00,SystemResetWarning,0835.4,5.01,000.00,029.7,028.6,000.0,038.1,031.3,31.8,-000.3,0006.19,0015.23,0005.17
2023-07-15 08:32:00,SystemResetWarning,0835.4,4.99,000.00,029.7,028.6,000.0,038.2,031.4,31.8,-000.6,0006.15,0015.74,0005.15
2023-07-15 08:33:00,SystemResetWarning,0835.4,5.01,000.00,029.8,028.6,000.0,038.2,031.4,31.8,-000.8,0006.13,0015.97,0005.12
2023-07-15 08:34:00,SystemResetWarning,0835.3,5.00,000.00,029.8,028.7,000.0,038.2,031.4,31.7,-000.8,0006.07,0014.32,0005.10
2023-07-15 08:35:00,SystemResetWarning,0835.3,4.99,000.00,029.8,028.7,000.0,038.2,031.4,31.7,0000.0,0006.07,0013.81,0005.09
2023-07-15 08:36:00,SystemResetWarning,0835.3,4.99,000.00,029.8,027.7,000.0,038.2,031.3,31.7,0000.0,0006.11,0013.92,0005.07
2023-07-15 08:37:00,SystemResetWarning,0835.3,5.01,000.00,029.7,025.8,000.0,038.0,031.0,31.8,-000.0,0006.06,0013.49,0005.05
2023-07-15 08:38:00,SystemResetWarning,0835.2,5.00,000.00,029.6,025.2,000.0,038.0,030.7,32.1,-000.3,0005.99,0013.63,0005.04
2023-07-15 08:39:00,SystemResetWarning,0835.2,5.01,000.00,029.5,025.4,000.0,038.0,030.5,32.3,0000.0,0005.93,0013.22,0005.02
2023-07-15 08:40:00,SystemResetWarning,0835.2,5.00,000.00,029.4,025.8,000.0,038.0,030.6,32.5,-000.8,0005.93,0014.15,0005.02
2023-07-15 08:41:00,SystemResetWarning,0835.2,5.00,000.00,029.4,026.2,000.0,038.0,030.7,32.5,-000.3,0005.92,0014.55,0005.03
2023-07-15 08:42:00,SystemResetWarning,0835.2,5.00,000.00,029.4,026.6,000.0,038.0,030.8,32.6,-000.6,0006.00,0014.27,0005.05
2023-07-15 08:43:00,SystemResetWarning,0835.2,5.00,000.00,029.4,026.9,000.0,038.0,030.8,32.6,-000.1,0006.01,0013.56,0005.06
2023-07-15 08:44:00,SystemResetWarning,0835.2,4.99,000.00,029.4,027.2,000.0,038.0,030.9,32.6,-000.3,0006.05,0013.09,0005.07
2023-07-15 08:45:00,SystemResetWarning,0835.2,5.00,000.00,029.4,027.4,000.0,038.0,030.9,32.5,0000.0,0006.08,0013.27,0005.09
2023-07-15 08:46:00,SystemResetWarning,0835.3,5.01,000.00,029.4,027.7,000.0,038.0,031.0,32.4,0000.0,0006.06,0014.06,0005.11
2023-07-15 08:47:00,SystemResetWarning,0835.3,5.00,000.00,029.4,027.8,000.0,038.0,031.0,32.4,0000.0,0006.07,0014.28,0005.13
2023-07-15 08:48:00,SystemResetWarning,0835.3,5.00,000.00,029.5,028.0,000.0,038.0,031.0,32.4,0000.0,0006.14,0014.33,0005.16
2023-07-15 08:49:00,SystemResetWarning,0835.3,5.00,000.00,029.5,028.1,000.0,038.0,031.1,32.3,0000.0,0006.17,0015.11,0005.18
2023-07-15 08:50:00,SystemResetWarning,0835.3,5.00,000.00,029.5,028.2,000.0,038.0,031.1,32.3,0000.0,0006.20,0015.33,0005.21
2023-07-15 08:51:00,SystemResetWarning,0835.6,4.99,000.00,029.5,028.2,000.0,038.0,031.2,32.2,-000.1,0006.21,0014.45,0005.24
2023-07-15 08:52:00,SystemResetWarning,0835.3,5.02,000.00,029.6,028.3,000.0,038.0,031.2,32.1,0000.0,0006.23,0013.86,0005.27
2023-07-15 08:53:00,SystemResetWarning,0835.5,5.00,000.00,029.6,028.3,000.0,038.0,031.2,32.0,0000.0,0006.23,0013.41,0005.30
2023-07-15 08:54:00,SystemResetWarning,0835.3,5.00,000.00,029.6,028.4,000.0,038.1,031.2,31.9,0000.0,0006.25,0013.45,0005.33
2023-07-15 08:55:00,SystemResetWarning,0835.5,4.99,000.00,029.6,028.4,000.0,038.1,031.3,31.8,0000.0,0006.25,0013.95,0005.35
2023-07-15 08:56:00,SystemResetWarning,0835.4,5.00,000.00,029.7,028.5,000.0,038.1,031.3,31.8,0000.0,0006.30,0013.95,0005.38
2023-07-15 08:57:00,SystemResetWarning,0835.4,5.00,000.00,029.7,028.5,000.0,038.1,031.3,31.7,0000.0,0006.35,0013.16,0005.39
2023-07-15 08:58:00,SystemResetWarning,0835.4,5.01,000.00,029.7,028.5,000.0,038.1,031.3,31.7,0000.0,0006.34,0013.06,0005.40
2023-07-15 08:59:00,SystemResetWarning,0835.5,5.01,000.00,029.7,028.6,000.0,038.2,031.3,31.8,0000.0,0006.35,0013.29,0005.39
